QPF
0.00 0.00 0.00 0.00 0.00 0.00 0.00 0.00 0.00 0.00 0.00 0.00 0.00 0.00 0.00 0.00 0.00 0.00 0.00 0.00 0.00 0.00 0.00 0.00 0.00 0.00 0.00 0.00 0.00 0.00 0.00 0.00 0.00 0.00 0.00 0.00 0.00 0.00 0.00 0.00 0.00 0.00 0.00 0.00 0.00 0.00 0.00 0.00 0.00
0.00 0.00 0.00 0.00 0.00 0.00 0.00 0.00 0.00 0.00 0.00 0.00 0.00 0.00 0.00 0.00 0.00 0.00 0.00 0.00 0.00 0.00 0.00 0.00 0.00 0.00 0.00 0.00 0.00 0.00 0.00 0.00 0.00 0.00 0.00 0.00 0.00 0.00 0.00 0.00 0.00 0.00 0.00 0.00 0.00 0.00 0.00 0.00 0.00
0.00 0.00 0.00 0.00 0.00 0.00 0.00 0.00 0.00 0.00 0.00 0.00 0.00 0.00 0.00 0.00 0.00 0.00 0.00 0.00 0.00 0.00 0.00 0.00 0.00 0.00 0.00 0.00 0.00 0.00 0.00 0.00 0.00 0.00 0.00 0.00 0.00 0.00 0.00 0.00 0.00 0.00 0.00 0.00 0.00 0.00 0.00 0.00 0.00
0.00 0.00 0.00 0.00 0.00 0.00 0.00 0.00 0.00 0.00 0.00 0.00 0.00 0.00 0.00 0.00 0.00 0.00 0.00 0.00 0.00 0.00 0.00 0.00 0.00 0.00 0.00 0.00 0.00 0.00 0.00 0.00 0.00 0.00 0.00 0.00 0.00 0.00 0.00 0.00 0.00 0.00 0.00 0.00 0.00 0.00 0.00 0.00 0.00
0.00 0.00 0.00 0.00 0.00 0.00 0.00 0.00 0.00 0.00 0.00 0.00 0.00 0.00 0.00 0.00 0.00 0.00 0.00 0.00 0.00 0.00 0.00 0.00 0.00 0.00 0.00 0.00 0.00 0.00 0.00 0.00 0.00 0.00 0.00 0.00 0.00 0.00 0.00 0.00 0.00 0.00 0.00 0.00 0.00 0.00 0.00 0.00 0.00
0.00 0.00 0.00 0.00 0.00 0.00 0.00 0.00 0.00 0.00 0.00 0.00 0.00 0.00 0.00 0.00 0.00 0.00 0.00 0.00 0.00 0.00 0.00 0.00 0.00 0.00 0.00 0.00 0.00 0.00 0.00 0.00 0.00 0.00 0.00 0.00 0.00 0.00 0.00 0.00 0.00 0.00 0.00 0.00 0.00 0.00 0.00 0.00 0.00
0.00 0.00 0.00 0.00 0.00 0.00 0.00 0.00 0.00 0.00 0.00 0.00 0.00 0.00 0.00 0.00 0.00 0.00 0.00 0.00 0.00 0.00 0.00 0.00 0.00 0.00 0.00 0.00 0.00 0.00 0.00 0.00 0.00 0.00 0.00 0.00 0.00 0.00 0.00 0.00 0.00 0.00 0.00 0.00 0.00 0.00 0.00 0.00 0.00
0.00 0.00 0.00 0.00 0.00 0.00 0.00 0.00 0.00 0.00 0.00 0.00 0.00 0.00 0.00 0.00 0.00 0.00 0.00 0.00 0.00 0.00 0.00 0.00 0.00 0.00 0.00 0.00 0.00 0.00 0.00 0.00 0.00 0.00 0.00 0.00 0.00 0.00 0.00 0.00 0.00 0.00 0.00 0.00 0.00 0.00 0.00 0.00 0.00
0.00 0.00 0.00 0.00 0.00 0.00 0.00 0.00 0.00 0.00 0.00 0.00 0.00 0.00 0.00 0.00 0.00 0.00 0.00 0.00 0.00 0.00 0.00 0.00 0.00 0.00 0.00 0.00 0.00 0.00 0.00 0.00 0.00 0.00 0.00 0.00 0.00 0.00 0.00 0.00 0.00 0.00 0.00 0.00 0.00 0.00 0.00 0.00 0.00
0.00 0.00 0.00 0.00 0.00 0.00 0.00 0.00 0.00 0.00 0.00 0.00 0.00 0.00 0.00 0.00 0.00 0.00 0.00 0.00 0.00 0.00 0.00 0.00 0.00 0.00 0.00 0.00 0.00 0.00 0.00 0.00 0.00 0.00 0.00 0.00 0.00 0.00 0.00 0.00 0.00 0.00 0.00 0.00 0.00 0.00 0.00 0.00 0.00
0.00 0.00 0.00 0.00 0.00 0.00 0.00 0.00 0.00 0.00 0.00 0.00 0.00 0.00 0.00 0.00 0.00 0.00 0.00 0.00 0.00 0.00 0.00 0.00 0.00 0.00 0.00 0.00 0.00 0.00 0.00 0.00 0.00 0.00 0.00 0.00 0.00 0.00 0.00 0.00 0.00 0.00 0.00 0.00 0.00 0.00 0.00 0.00 0.00
0.00 0.00 0.00 0.00 0.00 0.00 0.00 0.00 0.00 0.00 0.00 0.00 0.00 0.00 0.00 0.00 0.00 0.00 0.00 0.00 0.00 0.00 0.00 0.00 0.00 0.00 0.00 0.00 0.00 0.00 0.00 0.00 0.00 0.00 0.00 0.00 0.00 0.00 0.00 0.00 0.00 0.00 0.00 0.00 0.00 0.00 0.00 0.00 0.00
0.00 0.00 0.00 0.00 0.00 0.00 0.00 0.00 0.00 0.00 0.00 0.00 0.00 0.00 0.00 0.00 0.00 0.00 0.00 0.00 0.00 0.00 0.00 0.00 0.00 0.00 0.00 0.00 0.00 0.00 0.00 0.00 0.00 0.00 0.00 0.00 0.00 0.00 0.00 0.00 0.00 0.00 0.00 0.00 0.00 0.00 0.00 0.00 0.00
0.00 0.00 0.00 0.00 0.00 0.00 0.00 0.00 0.00 0.00 0.00 0.00 0.00 0.00 0.00 0.00 0.00 0.00 0.00 0.00 0.00 0.00 0.00 0.00 0.00 0.00 0.00 0.00 0.00 0.00 0.00 0.00 0.00 0.00 0.01 0.01 0.00 0.00 0.00 0.00 0.00 0.00 0.00 0.00 0.00 0.00 0.00 0.00 0.00
0.00 0.00 0.00 0.00 0.00 0.00 0.00 0.00 0.00 0.00 0.00 0.00 0.00 0.00 0.00 0.00 0.00 0.00 0.00 0.00 0.00 0.00 0.00 0.00 0.00 0.00 0.00 0.00 0.00 0.00 0.00 0.00 0.00 0.00 0.00 0.01 0.00 0.00 0.00 0.00 0.00 0.00 0.00 0.00 0.00 0.00 0.00 0.00 0.00
0.00 0.00 0.00 0.00 0.00 0.00 0.00 0.00 0.00 0.00 0.00 0.00 0.00 0.00 0.00 0.00 0.00 0.00 0.00 0.00 0.00 0.00 0.00 0.00 0.00 0.00 0.00 0.00 0.00 0.00 0.00 0.01 0.00 0.00 0.00 0.00 0.00 0.00 0.00 0.00 0.00 0.00 0.00 0.00 0.00 0.00 0.00 0.00 0.00
0.00 0.00 0.00 0.00 0.00 0.00 0.00 0.00 0.00 0.00 0.00 0.00 0.00 0.00 0.00 0.00 0.00 0.00 0.00 0.00 0.00 0.00 0.00 0.00 0.00 0.00 0.00 0.00 0.00 0.00 0.00 0.01 0.01 0.01 0.00 0.00 0.00 0.00 0.00 0.00 0.00 0.00 0.00 0.00 0.00 0.00 0.00 0.00 0.00
0.00 0.00 0.00 0.00 0.00 0.00 0.00 0.00 0.00 0.00 0.00 0.00 0.00 0.00 0.00 0.00 0.00 0.00 0.00 0.00 0.00 0.00 0.00 0.00 0.00 0.00 0.00 0.00 0.00 0.00 0.00 0.00 0.03 0.02 0.01 0.00 0.01 0.00 0.00 0.00 0.00 0.00 0.00 0.00 0.00 0.01 0.00 0.00 0.00
0.00 0.00 0.00 0.00 0.00 0.00 0.00 0.00 0.00 0.00 0.00 0.00 0.00 0.00 0.00 0.00 0.00 0.00 0.00 0.00 0.00 0.00 0.00 0.00 0.00 0.00 0.03 0.01 0.00 0.00 0.00 0.00 0.01 0.01 0.00 0.00 0.01 0.02 0.01 0.00 0.00 0.00 0.00 0.00 0.00 0.01 0.01 0.00 0.00
0.00 0.00 0.00 0.00 0.00 0.00 0.00 0.00 0.00 0.00 0.00 0.00 0.00 0.00 0.00 0.00 0.00 0.00 0.00 0.00 0.00 0.00 0.00 0.00 0.00 0.00 0.00 0.01 0.02 0.00 0.00 0.00 0.00 0.00 0.00 0.01 0.01 0.01 0.02 0.01 0.01 0.01 0.01 0.01 0.01 0.01 0.01 0.00 0.00
0.00 0.00 0.00 0.00 0.00 0.00 0.00 0.00 0.00 0.00 0.00 0.00 0.00 0.00 0.00 0.00 0.00 0.00 0.00 0.00 0.00 0.00 0.00 0.00 0.00 0.00 0.00 0.00 0.00 0.02 0.01 0.00 0.00 0.00 0.00 0.01 0.03 0.03 0.02 0.03 0.03 0.01 0.01 0.01 0.01 0.01 0.01 0.00 0.00
0.00 0.00 0.00 0.00 0.00 0.00 0.00 0.00 0.00 0.00 0.00 0.00 0.00 0.00 0.00 0.00 0.00 0.00 0.00 0.00 0.00 0.00 0.00 0.00 0.00 0.00 0.00 0.00 0.00 0.01 0.01 0.01 0.01 0.01 0.01 0.01 0.02 0.02 0.02 0.02 0.02 0.01 0.01 0.01 0.01 0.02 0.01 0.00 0.00
0.00 0.00 0.00 0.00 0.00 0.00 0.00 0.00 0.00 0.00 0.00 0.00 0.00 0.00 0.00 0.00 0.00 0.00 0.00 0.00 0.00 0.00 0.00 0.00 0.00 0.00 0.00 0.00 0.00 0.00 0.00 0.00 0.00 0.00 0.00 0.00 0.00 0.00 0.01 0.02 0.02 0.01 0.00 0.01 0.01 0.01 0.01 0.00 0.00
0.00 0.00 0.00 0.00 0.00 0.00 0.00 0.00 0.00 0.00 0.00 0.00 0.00 0.00 0.00 0.00 0.00 0.00 0.00 0.00 0.00 0.00 0.00 0.00 0.00 0.00 0.00 0.00 0.00 0.00 0.00 0.00 0.00 0.00 0.00 0.00 0.00 0.00 0.00 0.01 0.02 0.02 0.01 0.01 0.01 0.01 0.03 0.02 0.01
0.00 0.00 0.00 0.00 0.00 0.00 0.00 0.00 0.00 0.00 0.00 0.00 0.00 0.00 0.00 0.00 0.00 0.00 0.00 0.00 0.00 0.00 0.00 0.00 0.00 0.00 0.00 0.00 0.00 0.00 0.00 0.00 0.00 0.00 0.00 0.00 0.00 0.00 0.00 0.01 0.02 0.02 0.02 0.02 0.02 0.02 0.04 0.04 0.01
0.00 0.00 0.00 0.00 0.00 0.00 0.00 0.00 0.00 0.00 0.00 0.00 0.00 0.00 0.00 0.00 0.00 0.00 0.00 0.00 0.00 0.00 0.00 0.00 0.00 0.00 0.00 0.00 0.00 0.00 0.00 0.00 0.00 0.00 0.00 0.00 0.00 0.00 0.00 0.00 0.01 0.03 0.03 0.03 0.05 0.02 0.04 0.05 0.03
0.00 0.00 0.00 0.00 0.00 0.00 0.00 0.00 0.00 0.00 0.00 0.00 0.00 0.00 0.00 0.00 0.00 0.00 0.00 0.00 0.00 0.00 0.00 0.00 0.00 0.00 0.00 0.00 0.00 0.00 0.00 0.00 0.00 0.00 0.00 0.00 0.00 0.00 0.00 0.00 0.02 0.02 0.03 0.03 0.04 0.04 0.04 0.05 0.04
0.00 0.00 0.00 0.00 0.00 0.00 0.00 0.00 0.00 0.00 0.00 0.00 0.00 0.00 0.00 0.00 0.00 0.00 0.00 0.00 0.00 0.00 0.00 0.00 0.00 0.00 0.00 0.00 0.00 0.00 0.00 0.00 0.00 0.00 0.00 0.00 0.00 0.00 0.00 0.02 0.04 0.04 0.03 0.03 0.02 0.03 0.04 0.06 0.06
0.00 0.00 0.00 0.00 0.00 0.00 0.00 0.00 0.00 0.00 0.00 0.00 0.00 0.00 0.00 0.00 0.00 0.00 0.00 0.00 0.00 0.00 0.00 0.00 0.00 0.00 0.00 0.00 0.00 0.00 0.00 0.00 0.00 0.00 0.00 0.00 0.00 0.00 0.01 0.04 0.05 0.04 0.03 0.02 0.02 0.01 0.03 0.04 0.05
0.00 0.00 0.00 0.00 0.00 0.00 0.00 0.00 0.00 0.00 0.00 0.00 0.00 0.00 0.00 0.00 0.00 0.00 0.00 0.00 0.00 0.00 0.00 0.00 0.00 0.00 0.00 0.00 0.00 0.00 0.00 0.00 0.00 0.00 0.00 0.00 0.00 0.00 0.01 0.02 0.03 0.03 0.02 0.02 0.02 0.02 0.03 0.03 0.02
MSLP
1010.83 1010.73 1011.52 1011.70 1012.47 1011.69 1010.33 1007.86 1006.11 1005.37 1004.71 1004.22 1004.13 1004.60 1005.35 1005.97 1006.72 1008.01 1008.12 1008.30 1008.87 1009.80 1010.45 1010.70 1010.88 1011.21 1011.64 1012.10 1012.63 1013.03 1013.15 1013.26 1013.73 1014.22 1014.79 1015.27 1015.50 1015.93 1016.23 1016.31 1016.68 1016.79 1017.11 1017.28 1017.68 1017.88 1018.10 1018.11 1018.04
1010.57 1010.73 1011.39 1011.40 1011.72 1011.29 1009.21 1006.84 1005.80 1004.94 1004.25 1003.94 1004.00 1004.38 1005.00 1006.36 1006.47 1007.34 1007.77 1008.27 1008.74 1009.61 1010.37 1010.77 1011.09 1011.47 1011.68 1012.14 1012.47 1013.03 1013.33 1013.50 1013.80 1014.27 1014.65 1015.20 1015.63 1015.96 1016.26 1016.46 1016.72 1016.80 1017.24 1017.52 1017.74 1018.16 1018.30 1018.31 1018.19
1010.57 1010.83 1011.53 1011.17 1010.72 1010.21 1008.53 1006.11 1005.12 1004.41 1003.94 1004.00 1004.29 1004.35 1005.00 1006.56 1006.85 1007.60 1007.88 1008.19 1008.90 1009.77 1010.30 1010.98 1011.32 1011.67 1011.95 1012.28 1012.57 1012.94 1013.47 1013.68 1013.83 1014.32 1014.89 1015.19 1015.57 1016.05 1016.34 1016.60 1016.73 1016.92 1017.38 1017.75 1018.02 1018.44 1018.57 1018.53 1018.40
1010.73 1010.93 1010.97 1010.72 1010.11 1008.33 1007.78 1005.90 1004.60 1004.31 1004.18 1004.08 1004.60 1005.12 1006.07 1006.65 1006.78 1007.36 1007.80 1008.11 1008.93 1009.58 1010.09 1010.91 1011.51 1011.83 1012.08 1012.37 1012.73 1013.03 1013.49 1013.81 1014.00 1014.42 1014.76 1015.29 1015.53 1016.11 1016.40 1016.67 1016.87 1017.05 1017.41 1017.85 1018.26 1018.59 1018.76 1018.78 1018.62
1010.64 1011.10 1011.28 1010.79 1009.27 1007.99 1006.91 1005.16 1004.37 1004.49 1004.43 1004.45 1004.78 1005.65 1006.66 1007.57 1007.58 1007.76 1008.07 1008.32 1008.95 1009.57 1009.90 1010.56 1011.37 1011.95 1012.27 1012.49 1012.79 1013.09 1013.50 1013.96 1014.12 1014.36 1014.85 1015.29 1015.56 1016.00 1016.41 1016.61 1016.83 1017.23 1017.61 1018.09 1018.37 1018.76 1018.84 1018.79 1018.80
1010.93 1010.87 1011.34 1010.88 1009.45 1008.06 1006.68 1005.30 1004.53 1004.43 1004.47 1004.66 1005.52 1006.09 1007.56 1007.70 1007.85 1008.27 1008.40 1008.61 1008.88 1009.49 1010.00 1010.41 1011.12 1011.84 1012.49 1012.73 1013.03 1013.35 1013.75 1014.26 1014.50 1014.78 1015.04 1015.39 1015.74 1016.02 1016.45 1016.77 1016.90 1017.14 1017.70 1018.07 1018.50 1018.66 1018.88 1018.90 1018.73
1010.82 1011.27 1011.04 1010.48 1009.40 1007.80 1006.12 1005.28 1004.93 1004.83 1004.70 1004.80 1005.26 1006.21 1007.53 1007.93 1007.81 1008.09 1008.50 1008.69 1009.00 1009.54 1009.99 1010.49 1011.18 1011.78 1012.38 1012.87 1013.25 1013.69 1013.93 1014.23 1014.66 1015.01 1015.28 1015.73 1015.98 1016.20 1016.48 1016.78 1017.19 1017.52 1017.82 1018.14 1018.45 1018.60 1018.77 1018.96 1018.92
1010.25 1010.91 1010.69 1010.01 1009.28 1007.61 1006.14 1005.87 1005.15 1005.32 1005.24 1004.91 1005.03 1006.06 1006.83 1007.45 1007.56 1007.83 1008.18 1008.58 1008.97 1009.79 1010.10 1010.61 1011.08 1011.66 1012.17 1012.64 1013.07 1013.56 1013.95 1014.23 1014.36 1014.70 1015.10 1015.38 1015.91 1016.36 1016.46 1016.93 1017.26 1017.66 1017.98 1018.42 1018.60 1018.71 1018.80 1018.85 1018.97
1009.69 1010.48 1010.20 1009.67 1008.78 1007.44 1006.39 1006.24 1005.62 1005.56 1005.52 1005.38 1005.45 1005.84 1006.10 1006.40 1007.33 1007.98 1008.67 1008.95 1009.05 1009.62 1010.22 1010.68 1011.05 1011.61 1012.14 1012.57 1012.98 1013.42 1013.88 1014.33 1014.65 1014.76 1015.20 1015.51 1015.78 1016.01 1016.41 1016.88 1017.43 1017.80 1017.95 1018.40 1018.70 1018.82 1018.66 1018.82 1018.97
1009.78 1010.04 1009.38 1008.76 1008.21 1007.65 1006.78 1006.59 1006.19 1005.87 1005.83 1005.76 1005.88 1005.88 1006.03 1007.00 1007.36 1007.85 1008.53 1008.75 1009.14 1009.34 1009.90 1010.02 1010.54 1011.01 1011.76 1012.21 1012.74 1013.29 1013.78 1014.19 1014.56 1014.84 1015.14 1015.49 1015.79 1016.06 1016.34 1016.79 1017.31 1017.71 1018.11 1018.39 1018.66 1018.99 1018.84 1018.72 1018.83
1009.28 1009.32 1008.79 1008.15 1007.60 1007.08 1006.85 1006.57 1006.51 1006.49 1006.29 1006.36 1006.35 1006.49 1006.22 1006.10 1006.51 1007.10 1007.50 1007.65 1007.96 1008.26 1009.34 1009.71 1010.13 1010.41 1010.96 1011.71 1012.29 1012.88 1013.29 1013.78 1014.29 1014.71 1015.13 1015.50 1015.70 1015.89 1016.43 1016.90 1017.33 1017.76 1018.05 1018.48 1018.78 1019.06 1019.08 1018.78 1018.75
1009.06 1008.54 1008.25 1007.81 1007.14 1007.01 1006.85 1006.44 1006.47 1006.56 1006.29 1006.11 1006.00 1006.00 1005.88 1005.90 1006.06 1006.16 1006.51 1006.79 1007.47 1007.80 1008.23 1008.97 1009.45 1010.04 1010.54 1010.88 1011.65 1012.16 1012.66 1013.28 1013.67 1014.11 1014.57 1015.09 1015.54 1016.02 1016.67 1017.16 1017.71 1017.84 1018.05 1018.50 1018.63 1018.96 1019.09 1018.97 1018.74
1008.85 1008.50 1008.07 1007.54 1007.30 1006.85 1006.59 1006.75 1006.74 1006.51 1005.92 1005.54 1005.43 1005.39 1005.39 1005.48 1005.78 1005.84 1006.07 1006.02 1006.32 1007.35 1008.08 1008.35 1008.97 1009.63 1010.19 1010.63 1011.00 1011.59 1012.15 1012.60 1013.06 1013.61 1013.98 1014.32 1014.82 1015.40 1015.93 1016.33 1016.91 1017.49 1017.94 1018.40 1018.84 1018.83 1018.77 1018.67 1018.58
1008.91 1008.77 1008.28 1007.79 1007.41 1007.13 1006.87 1006.74 1006.70 1006.16 1005.36 1005.24 1005.00 1005.14 1005.27 1005.33 1005.58 1005.78 1005.94 1005.97 1005.99 1006.69 1007.55 1008.21 1008.73 1009.10 1009.67 1010.22 1010.70 1011.18 1011.68 1012.09 1012.72 1013.27 1013.59 1014.08 1014.45 1014.95 1015.56 1016.10 1016.61 1017.08 1017.29 1017.75 1018.06 1018.66 1018.94 1018.70 1018.30
1009.21 1009.09 1008.49 1008.09 1007.52 1007.20 1006.92 1006.87 1006.44 1005.46 1005.17 1004.88 1004.79 1004.99 1005.09 1005.28 1005.38 1005.74 1005.99 1006.44 1006.34 1006.73 1007.08 1007.24 1007.89 1008.60 1009.12 1009.64 1010.21 1010.79 1011.24 1012.02 1012.60 1013.05 1013.40 1013.47 1014.08 1014.50 1015.01 1015.58 1016.11 1016.49 1017.02 1017.60 1018.01 1018.19 1018.24 1018.58 1018.48
1009.87 1009.51 1008.84 1008.14 1007.36 1006.57 1007.13 1006.63 1005.74 1004.92 1004.92 1004.99 1004.96 1005.09 1005.23 1005.86 1006.56 1007.33 1007.47 1007.47 1007.55 1007.84 1007.32 1007.43 1008.36 1008.83 1009.27 1009.43 1009.88 1010.23 1010.43 1011.08 1011.74 1012.36 1012.85 1013.02 1012.96 1013.48 1014.06 1014.69 1015.30 1015.81 1016.39 1017.07 1017.91 1018.08 1018.14 1018.28 1018.42
1010.13 1009.61 1009.11 1008.06 1006.48 1006.27 1006.02 1005.84 1005.23 1004.61 1004.75 1005.02 1005.26 1005.36 1005.66 1006.53 1007.16 1007.58 1007.67 1007.71 1007.88 1008.08 1008.08 1008.29 1008.83 1009.12 1009.58 1009.93 1010.13 1010.34 1010.61 1010.93 1010.97 1011.43 1012.03 1012.23 1012.47 1012.76 1013.11 1013.44 1013.99 1014.64 1015.45 1016.17 1016.79 1017.56 1017.89 1018.39 1018.74
1009.55 1009.35 1008.77 1007.88 1006.10 1005.95 1005.98 1005.81 1005.39 1004.73 1004.70 1005.07 1005.57 1005.82 1006.37 1007.28 1007.86 1008.17 1008.07 1007.90 1007.96 1008.29 1008.90 1009.19 1009.28 1009.83 1010.33 1010.72 1010.95 1011.01 1010.88 1010.77 1010.57 1010.70 1011.08 1011.59 1011.99 1012.12 1012.31 1012.71 1013.44 1013.50 1014.38 1015.12 1015.96 1016.84 1017.81 1018.46 1019.02
1009.01 1008.71 1008.23 1007.27 1006.46 1006.30 1006.11 1005.79 1005.26 1004.50 1004.42 1004.94 1005.67 1006.52 1007.53 1007.88 1008.16 1008.24 1008.17 1008.09 1008.21 1008.45 1009.20 1010.17 1010.38 1010.64 1010.90 1010.99 1011.20 1011.31 1011.34 1011.42 1011.35 1011.09 1010.72 1010.91 1011.02 1011.49 1011.98 1012.10 1012.22 1012.79 1013.49 1013.96 1014.55 1015.60 1016.76 1018.07 1018.51
1008.38 1008.13 1007.66 1007.12 1006.46 1006.37 1006.22 1005.94 1005.35 1004.79 1004.46 1004.73 1006.17 1007.48 1008.18 1008.19 1008.33 1008.52 1008.62 1008.75 1008.93 1009.32 1009.89 1010.03 1010.44 1010.95 1011.09 1011.30 1011.35 1011.00 1010.89 1010.94 1010.74 1010.96 1011.00 1010.82 1010.81 1010.75 1011.14 1011.59 1011.69 1012.06 1012.25 1013.58 1013.80 1014.10 1015.52 1016.48 1017.28
1007.20 1007.11 1007.15 1007.02 1006.74 1006.45 1006.50 1005.98 1005.79 1004.97 1004.65 1004.97 1006.48 1007.41 1008.17 1008.31 1008.69 1008.83 1008.94 1009.37 1009.45 1009.86 1010.21 1010.46 1010.40 1010.53 1010.82 1011.09 1011.04 1011.01 1011.11 1011.33 1011.26 1011.12 1010.88 1010.59 1010.28 1010.22 1010.13 1010.39 1010.91 1011.01 1011.67 1011.60 1012.83 1013.19 1013.73 1014.46 1015.96
1006.04 1006.18 1006.50 1006.80 1007.11 1007.45 1006.93 1006.58 1006.18 1005.57 1006.40 1006.70 1007.36 1007.96 1008.33 1008.58 1008.83 1009.10 1009.40 1009.60 1009.66 1009.94 1010.07 1010.07 1010.22 1010.58 1010.47 1010.59 1011.15 1011.47 1011.49 1011.67 1011.54 1011.43 1010.85 1010.41 1009.73 1009.74 1009.86 1009.88 1009.46 1009.94 1010.93 1010.93 1010.87 1011.56 1011.77 1013.36 1013.97
1005.29 1005.92 1006.54 1007.12 1007.47 1007.63 1007.67 1007.48 1005.40 1005.08 1006.54 1007.14 1007.72 1008.19 1008.46 1008.89 1009.02 1009.34 1009.65 1009.54 1009.75 1009.92 1010.11 1010.36 1010.41 1010.40 1010.43 1010.56 1010.78 1011.17 1011.39 1011.37 1011.25 1011.33 1011.14 1010.79 1010.46 1009.89 1009.11 1008.88 1009.02 1009.60 1009.29 1009.81 1010.35 1010.34 1011.09 1011.01 1012.43
1005.18 1005.95 1006.69 1007.64 1007.88 1007.41 1007.82 1007.66 1004.88 1004.51 1004.87 1006.79 1007.66 1008.36 1008.67 1009.10 1009.16 1009.35 1009.33 1009.53 1009.74 1009.98 1010.35 1010.68 1010.76 1010.77 1010.66 1010.70 1010.64 1010.92 1010.83 1010.72 1010.62 1010.63 1010.47 1010.15 1010.02 1009.68 1009.55 1009.07 1008.60 1008.09 1008.43 1008.62 1009.03 1009.37 1009.24 1009.95 1010.10
1005.10 1006.17 1007.82 1008.24 1008.26 1007.06 1006.79 1006.77 1004.58 1003.94 1004.38 1006.08 1007.55 1008.57 1008.95 1009.30 1009.41 1009.64 1010.03 1010.25 1010.36 1010.61 1010.72 1010.56 1010.50 1010.55 1010.62 1010.69 1010.83 1010.65 1010.37 1010.18 1010.04 1010.06 1009.79 1009.36 1009.18 1008.87 1008.41 1008.45 1008.02 1007.62 1007.58 1006.81 1008.31 1008.31 1008.53 1008.74 1009.19
1004.28 1005.39 1006.92 1007.72 1007.90 1007.31 1006.85 1006.22 1004.77 1005.16 1005.92 1006.98 1007.82 1008.75 1009.25 1009.87 1009.99 1010.11 1010.22 1010.49 1010.75 1010.85 1010.67 1010.57 1010.44 1010.43 1010.38 1010.35 1010.25 1010.09 1010.08 1009.95 1009.55 1009.28 1009.17 1008.73 1008.34 1008.11 1007.57 1007.15 1007.00 1006.79 1006.44 1006.73 1004.91 1007.09 1006.88 1007.89 1008.85
1004.23 1004.32 1005.91 1006.91 1007.77 1008.22 1007.95 1007.26 1006.81 1006.76 1007.40 1007.88 1008.56 1009.14 1009.61 1009.82 1010.07 1010.15 1010.43 1010.43 1010.43 1010.52 1010.41 1010.58 1010.73 1010.69 1010.69 1010.62 1010.23 1009.91 1009.54 1009.28 1008.84 1008.39 1008.12 1007.76 1007.22 1007.09 1006.73 1006.35 1005.50 1005.10 1004.97 1005.07 1005.14 1003.79 1005.43 1005.97 1007.16
1002.98 1004.70 1006.37 1008.17 1009.84 1009.86 1008.60 1007.92 1007.66 1008.23 1008.44 1008.69 1009.14 1009.35 1009.59 1009.74 1009.92 1010.12 1010.24 1010.15 1010.18 1010.30 1010.60 1010.56 1010.52 1010.38 1010.24 1010.05 1009.85 1009.33 1008.79 1008.23 1007.70 1007.30 1006.93 1006.62 1005.97 1005.64 1005.39 1004.70 1004.07 1003.26 1002.81 1002.82 1002.57 1002.87 1002.46 1003.68 1005.27
1003.41 1004.44 1006.10 1007.88 1009.15 1009.72 1009.78 1009.14 1008.24 1008.72 1008.87 1009.01 1009.21 1009.24 1009.46 1009.83 1010.00 1010.30 1010.56 1010.49 1010.42 1010.36 1010.36 1010.31 1010.32 1010.32 1010.03 1009.68 1009.20 1008.79 1007.91 1007.21 1006.72 1006.74 1006.16 1005.43 1004.79 1004.44 1003.93 1003.17 1002.18 1000.92 1000.10 1000.06 1000.83 1002.02 1001.61 1002.52 1003.72
1003.26 1004.58 1006.29 1008.01 1009.48 1009.99 1010.41 1009.84 1009.06 1008.90 1008.97 1008.90 1009.11 1009.30 1009.44 1009.45 1010.07 1010.25 1010.28 1010.25 1010.37 1010.32 1010.21 1010.25 1010.21 1010.01 1009.91 1009.65 1009.09 1008.28 1007.31 1006.66 1006.27 1005.80 1005.20 1004.65 1004.04 1003.47 1002.32 1001.23 999.88 998.39 997.52 998.13 999.22 1000.25 1000.67 1002.22 1003.01
Thickness
5802 5804 5800 5792 5757 5754 5751 5779 5814 5805 5815 5838 5840 5827 5811 5815 5805 5779 5821 5826 5822 5810 5803 5799 5796 5790 5785 5779 5773 5769 5766 5764 5759 5753 5746 5741 5738 5732 5728 5727 5723 5721 5716 5715 5710 5708 5705 5704 5703
5801 5801 5793 5780 5748 5734 5747 5799 5794 5808 5827 5841 5836 5830 5815 5796 5825 5819 5814 5820 5819 5809 5800 5794 5790 5784 5781 5776 5772 5766 5762 5759 5755 5750 5746 5739 5734 5731 5727 5723 5720 5718 5713 5711 5709 5704 5701 5701 5701
5799 5798 5773 5762 5752 5737 5752 5803 5804 5819 5831 5832 5822 5831 5818 5800 5819 5819 5822 5816 5813 5804 5796 5787 5783 5778 5774 5770 5768 5763 5757 5754 5752 5746 5740 5737 5733 5727 5724 5720 5718 5715 5710 5706 5703 5699 5697 5697 5698
5789 5783 5779 5755 5753 5775 5783 5801 5815 5813 5817 5831 5820 5806 5810 5814 5818 5823 5821 5814 5803 5800 5794 5784 5777 5773 5769 5765 5761 5758 5753 5749 5747 5742 5738 5733 5730 5724 5721 5717 5714 5711 5707 5703 5699 5696 5693 5693 5693
5785 5771 5747 5749 5758 5778 5790 5808 5814 5806 5811 5813 5809 5795 5790 5802 5813 5817 5813 5810 5796 5794 5790 5781 5773 5767 5762 5760 5756 5753 5749 5744 5742 5739 5734 5730 5726 5722 5718 5715 5712 5707 5703 5698 5695 5691 5690 5690 5689
5759 5765 5737 5733 5754 5781 5792 5805 5808 5803 5808 5810 5793 5791 5783 5802 5801 5801 5802 5796 5792 5786 5781 5777 5769 5763 5756 5753 5749 5746 5742 5736 5734 5731 5729 5725 5721 5719 5714 5710 5708 5706 5700 5696 5692 5690 5687 5686 5687
5752 5743 5737 5747 5753 5770 5791 5804 5793 5794 5797 5798 5801 5779 5776 5783 5792 5792 5789 5788 5783 5777 5774 5770 5763 5758 5752 5746 5742 5738 5735 5733 5729 5725 5723 5718 5715 5713 5709 5706 5702 5698 5696 5693 5690 5688 5686 5683 5682
5759 5750 5745 5748 5748 5759 5789 5791 5795 5785 5789 5813 5806 5774 5774 5785 5794 5791 5782 5780 5777 5770 5769 5765 5760 5755 5750 5745 5741 5735 5731 5728 5728 5724 5720 5718 5712 5708 5706 5701 5698 5694 5691 5686 5684 5683 5682 5680 5678
5770 5730 5729 5740 5749 5763 5789 5779 5793 5795 5784 5794 5795 5789 5790 5794 5791 5781 5772 5768 5770 5767 5764 5761 5757 5750 5746 5741 5738 5733 5728 5723 5721 5720 5715 5712 5710 5707 5703 5698 5693 5689 5687 5683 5680 5678 5679 5676 5673
5744 5724 5741 5760 5764 5760 5774 5771 5778 5778 5778 5780 5778 5787 5790 5779 5778 5771 5766 5763 5761 5762 5762 5762 5757 5752 5744 5740 5735 5730 5725 5722 5718 5716 5712 5710 5707 5704 5700 5695 5689 5686 5682 5678 5675 5672 5673 5672 5671
5742 5732 5750 5761 5767 5772 5766 5767 5773 5762 5762 5768 5764 5770 5776 5779 5775 5769 5767 5769 5768 5769 5760 5759 5756 5752 5748 5741 5735 5728 5724 5721 5717 5713 5708 5704 5704 5701 5696 5691 5686 5682 5678 5674 5670 5667 5667 5668 5667
5730 5747 5753 5758 5768 5765 5760 5768 5759 5762 5764 5771 5772 5773 5773 5771 5772 5772 5769 5769 5765 5767 5765 5759 5757 5752 5747 5743 5736 5732 5727 5721 5717 5713 5708 5702 5699 5694 5689 5683 5678 5676 5674 5670 5668 5665 5662 5662 5661
5731 5740 5748 5754 5755 5761 5761 5750 5749 5751 5766 5770 5773 5771 5767 5770 5769 5770 5770 5772 5771 5764 5761 5759 5755 5750 5745 5741 5738 5732 5727 5722 5718 5713 5708 5704 5700 5697 5691 5686 5679 5673 5668 5665 5660 5661 5660 5658 5658
5733 5734 5738 5744 5744 5747 5742 5740 5739 5755 5761 5762 5767 5761 5763 5763 5764 5765 5764 5768 5770 5762 5760 5757 5753 5750 5745 5739 5736 5730 5725 5721 5715 5709 5705 5699 5693 5690 5687 5681 5676 5671 5669 5666 5659 5654 5650 5652 5654
5725 5714 5725 5730 5734 5728 5735 5715 5726 5750 5751 5755 5758 5758 5758 5759 5762 5757 5762 5759 5760 5759 5759 5760 5757 5751 5744 5740 5734 5729 5722 5714 5708 5702 5697 5695 5688 5683 5679 5676 5672 5667 5662 5658 5653 5652 5650 5644 5643
5701 5704 5692 5722 5727 5733 5715 5697 5729 5745 5748 5747 5751 5752 5752 5752 5738 5738 5742 5745 5746 5746 5751 5751 5744 5742 5738 5735 5730 5726 5722 5715 5708 5702 5696 5692 5690 5684 5679 5673 5668 5663 5657 5650 5642 5642 5642 5639 5637
5691 5674 5683 5696 5726 5721 5715 5701 5728 5740 5742 5739 5739 5739 5743 5730 5733 5733 5738 5739 5739 5737 5738 5739 5735 5732 5727 5725 5722 5718 5715 5710 5707 5703 5697 5692 5687 5683 5680 5679 5671 5664 5655 5650 5645 5637 5634 5629 5625
5673 5674 5681 5688 5717 5714 5704 5701 5718 5735 5738 5730 5730 5729 5726 5721 5722 5727 5730 5732 5732 5728 5724 5723 5722 5717 5712 5707 5705 5703 5703 5703 5702 5701 5696 5690 5683 5678 5675 5672 5667 5665 5657 5651 5643 5633 5626 5619 5614
5683 5681 5680 5696 5709 5698 5692 5695 5708 5726 5729 5726 5724 5713 5709 5713 5719 5720 5722 5722 5722 5720 5712 5704 5701 5699 5697 5695 5692 5691 5687 5683 5684 5686 5688 5686 5682 5674 5666 5663 5663 5658 5652 5648 5644 5633 5624 5613 5609
5678 5673 5676 5690 5702 5694 5685 5688 5706 5721 5724 5725 5705 5699 5699 5703 5705 5706 5708 5708 5708 5704 5698 5694 5690 5685 5683 5681 5680 5682 5680 5680 5679 5674 5671 5672 5671 5668 5662 5657 5654 5649 5647 5637 5637 5634 5621 5615 5610
5676 5672 5674 5672 5686 5688 5680 5676 5691 5715 5718 5717 5706 5701 5697 5696 5693 5695 5697 5695 5696 5692 5689 5685 5682 5676 5672 5671 5670 5669 5667 5662 5660 5658 5657 5657 5657 5657 5655 5651 5645 5643 5636 5638 5628 5625 5621 5617 5606
5664 5685 5679 5671 5664 5640 5679 5631 5684 5699 5690 5688 5688 5687 5687 5687 5686 5685 5682 5682 5683 5682 5681 5680 5674 5666 5665 5660 5654 5648 5647 5644 5642 5640 5643 5644 5646 5643 5638 5637 5637 5631 5623 5626 5627 5623 5621 5609 5607
5669 5678 5667 5660 5650 5647 5650 5639 5675 5701 5675 5675 5677 5679 5676 5674 5674 5672 5670 5673 5673 5669 5664 5661 5658 5656 5653 5648 5644 5637 5631 5630 5628 5622 5620 5620 5621 5622 5624 5622 5619 5611 5613 5611 5609 5615 5609 5611 5603
5672 5660 5656 5653 5640 5625 5642 5640 5666 5687 5689 5674 5673 5668 5665 5662 5661 5662 5665 5663 5658 5650 5644 5640 5636 5635 5632 5630 5627 5621 5617 5614 5611 5604 5600 5603 5601 5599 5597 5597 5596 5598 5595 5596 5596 5598 5605 5602 5605
5655 5642 5606 5602 5600 5622 5659 5642 5667 5686 5688 5674 5661 5653 5651 5649 5649 5648 5645 5641 5638 5633 5629 5628 5624 5619 5615 5610 5604 5601 5599 5593 5589 5582 5576 5573 5569 5572 5575 5569 5571 5570 5572 5585 5574 5580 5587 5592 5593
5649 5640 5606 5598 5607 5630 5652 5632 5656 5667 5662 5655 5648 5640 5636 5632 5632 5632 5630 5622 5617 5615 5613 5611 5608 5603 5598 5593 5588 5583 5575 5572 5570 5561 5549 5544 5536 5529 5535 5538 5536 5536 5545 5550 5577 5564 5577 5575 5574
5634 5627 5648 5626 5633 5604 5623 5630 5640 5641 5632 5631 5627 5625 5621 5621 5619 5618 5610 5608 5606 5603 5602 5596 5587 5583 5576 5570 5567 5562 5555 5543 5539 5537 5527 5513 5512 5509 5507 5507 5517 5522 5526 5533 5542 5568 5564 5569 5567
5641 5646 5612 5597 5573 5588 5613 5622 5614 5612 5610 5612 5611 5611 5612 5611 5605 5602 5598 5597 5596 5592 5581 5574 5571 5563 5557 5552 5543 5541 5534 5524 5512 5506 5505 5500 5501 5499 5495 5498 5502 5509 5516 5522 5534 5545 5566 5548 5561
5630 5625 5617 5612 5590 5580 5579 5589 5609 5599 5599 5599 5600 5602 5600 5595 5590 5584 5579 5578 5578 5571 5566 5563 5554 5544 5537 5528 5520 5512 5510 5503 5492 5480 5480 5484 5488 5488 5488 5491 5497 5507 5516 5522 5522 5520 5533 5550 5557
5633 5618 5601 5590 5576 5563 5551 5560 5594 5590 5592 5595 5592 5589 5585 5581 5570 5568 5567 5566 5560 5557 5555 5545 5537 5526 5514 5502 5495 5490 5485 5476 5466 5462 5462 5468 5471 5475 5482 5487 5496 5504 5511 5511 5514 5517 5520 5535 5544